Time,TemperatureF,DewpointF,PressureIn,WindDirection,WindDirectionDegrees,WindSpeedMPH,WindSpeedGustMPH,Humidity,HourlyPrecipIn,Conditions,Clouds,dailyrainin,SoftwareType,DateUTC
2013-05-05 00:00:00,46.1,38.3,30.05,NNW,339,0.0,0.0,74,0.00,,,0.00,VWS V12.07,2013-05-05 05:00:00,
2013-05-05 00:30:00,46.1,38.3,30.04,NNW,339,0.0,0.0,74,0.00,,,0.00,VWS V12.07,2013-05-05 05:30:00,
2013-05-05 00:45:00,46.1,38.3,30.05,NNW,339,0.0,0.0,74,0.00,,,0.00,VWS V12.07,2013-05-05 05:45:00,
2013-05-05 01:00:00,46.1,38.3,30.05,NNW,339,0.0,0.0,74,0.00,,,0.00,VWS V12.07,2013-05-05 06:00:00,
2013-05-05 01:15:00,46.1,38.3,30.05,NNW,339,0.0,0.0,74,0.00,,,0.00,VWS V12.07,2013-05-05 06:15:00,
2013-05-05 01:30:00,46.1,38.3,30.03,NNW,339,0.0,0.0,74,0.00,,,0.00,VWS V12.07,2013-05-05 06:30:00,
2013-05-05 01:45:00,46.1,38.3,30.03,NNW,339,0.0,0.0,74,0.00,,,0.00,VWS V12.07,2013-05-05 06:45:00,
2013-05-05 02:00:00,46.1,38.3,30.03,NNW,339,0.0,0.0,74,0.00,,,0.00,VWS V12.07,2013-05-05 07:00:00,
2013-05-05 02:15:00,46.1,38.3,30.03,NNW,339,0.0,0.0,74,0.00,,,0.00,VWS V12.07,2013-05-05 07:15:00,
2013-05-05 02:30:00,46.1,38.3,30.02,NNW,339,0.0,0.0,74,0.00,,,0.00,VWS V12.07,2013-05-05 07:30:00,
2013-05-05 02:45:00,46.1,38.3,30.02,NNW,339,0.0,0.0,74,0.00,,,0.00,VWS V12.07,2013-05-05 07:45:00,
2013-05-05 03:00:00,46.1,38.3,30.02,NNW,339,0.0,0.0,74,0.00,,,0.00,VWS V12.07,2013-05-05 08:00:00,
2013-05-05 03:30:00,46.1,38.3,30.01,NNW,339,0.0,0.0,74,0.00,,,0.00,VWS V12.07,2013-05-05 08:30:00,
2013-05-05 03:45:00,46.1,38.3,30.01,NNW,339,0.0,0.0,74,0.00,,,0.00,VWS V12.07,2013-05-05 08:45:00,
2013-05-05 04:00:00,46.1,38.3,30.01,NNW,339,0.0,0.0,74,0.00,,,0.00,VWS V12.07,2013-05-05 09:00:00,
2013-05-05 04:30:00,46.1,38.3,30.02,NNW,339,0.0,0.0,74,0.00,,,0.00,VWS V12.07,2013-05-05 09:30:00,
2013-05-05 04:45:00,46.1,38.3,30.01,NNW,339,0.0,0.0,74,0.00,,,0.00,VWS V12.07,2013-05-05 09:45:00,
2013-05-05 05:00:00,46.1,38.3,30.01,NNW,339,0.0,0.0,74,0.00,,,0.00,VWS V12.07,2013-05-05 10:00:00,
2013-05-05 05:30:00,46.1,38.3,30.01,NNW,339,0.0,0.0,74,0.00,,,0.00,VWS V12.07,2013-05-05 10:30:00,
2013-05-05 05:45:00,46.1,38.3,30.01,NNW,339,0.0,0.0,74,0.00,,,0.00,VWS V12.07,2013-05-05 10:45:00,
2013-05-05 06:00:00,46.1,38.3,30.02,NNW,339,0.0,0.0,74,0.00,,,0.00,VWS V12.07,2013-05-05 11:00:00,
2013-05-05 06:30:00,46.1,38.3,30.03,NNW,339,0.0,0.0,74,0.00,,,0.00,VWS V12.07,2013-05-05 11:30:00,
2013-05-05 06:45:00,46.1,38.3,30.04,NNW,339,0.0,0.0,74,0.00,,,0.00,VWS V12.07,2013-05-05 11:45:00,
2013-05-05 07:00:00,46.1,38.3,30.05,NNW,339,0.0,0.0,74,0.00,,,0.00,VWS V12.07,2013-05-05 12:00:00,
2013-05-05 07:30:00,46.1,38.3,30.02,NNW,339,0.0,0.0,74,0.00,,,0.00,VWS V12.07,2013-05-05 12:30:00,
2013-05-05 07:45:00,46.1,38.3,30.05,NNW,339,0.0,0.0,74,0.00,,,0.00,VWS V12.07,2013-05-05 12:45:00,
2013-05-05 08:00:00,46.1,38.3,30.02,NNW,339,0.0,0.0,74,0.00,,,0.00,VWS V12.07,2013-05-05 13:00:00,
2013-05-05 08:30:00,46.1,38.3,30.02,NNW,339,0.0,0.0,74,0.00,,,0.00,VWS V12.07,2013-05-05 13:30:00,
2013-05-05 08:45:00,46.1,38.3,30.03,NNW,339,0.0,0.0,74,0.00,,,0.00,VWS V12.07,2013-05-05 13:45:00,
2013-05-05 09:00:00,46.1,38.3,30.02,NNW,339,0.0,0.0,74,0.00,,,0.00,VWS V12.07,2013-05-05 14:00:00,
2013-05-05 09:30:00,46.1,38.3,30.02,NNW,339,0.0,0.0,74,0.00,,,0.00,VWS V12.07,2013-05-05 14:30:00,
2013-05-05 09:45:00,46.1,38.3,30.02,NNW,339,0.0,0.0,74,0.00,,,0.00,VWS V12.07,2013-05-05 14:45:00,
2013-05-05 10:00:00,46.1,38.3,30.02,NNW,339,0.0,0.0,74,0.00,,,0.00,VWS V12.07,2013-05-05 15:00:00,
2013-05-05 10:30:00,51.3,40.3,30.03,North,356,2.0,3.0,66,0.00,,,0.00,VWS V12.07,2013-05-05 15:30:00,
2013-05-05 10:45:00,50.1,38.8,30.02,North,0,3.0,6.0,65,0.00,,,0.00,VWS V12.07,2013-05-05 15:45:00,
2013-05-05 11:00:00,50.7,39.0,30.03,North,356,4.0,9.0,64,0.00,,,0.00,VWS V12.07,2013-05-05 16:00:00,
2013-05-05 11:30:00,53.2,41.0,30.03,NNW,340,2.0,7.0,63,0.00,,,0.00,VWS V12.07,2013-05-05 16:30:00,
2013-05-05 11:45:00,53.5,40.0,30.03,NNW,340,0.0,6.0,60,0.00,,,0.00,VWS V12.07,2013-05-05 16:45:00,
2013-05-05 12:00:00,54.7,40.7,30.02,NNW,328,5.0,6.0,59,0.00,,,0.00,VWS V12.07,2013-05-05 17:00:00,
2013-05-05 12:30:00,55.9,41.3,30.02,NNW,331,0.0,6.0,58,0.00,,,0.00,VWS V12.07,2013-05-05 17:30:00,
2013-05-05 12:45:00,57.2,41.7,30.01,NNW,340,0.0,6.0,56,0.00,,,0.00,VWS V12.07,2013-05-05 17:45:00,
2013-05-05 13:00:00,57.5,41.9,30.01,NNW,343,1.0,7.0,56,0.00,,,0.00,VWS V12.07,2013-05-05 18:00:00,
2013-05-05 13:30:00,59.5,42.9,30.00,North,349,4.0,7.0,54,0.00,,,0.00,VWS V12.07,2013-05-05 18:30:00,
2013-05-05 13:45:00,60.1,42.9,30.00,North,355,4.0,7.0,53,0.00,,,0.00,VWS V12.07,2013-05-05 18:45:00,
2013-05-05 14:00:00,60.7,43.0,29.99,North,1,4.0,7.0,52,0.00,,,0.00,VWS V12.07,2013-05-05 19:00:00,
2013-05-05 14:30:00,64.0,45.0,29.96,North,351,6.0,6.0,50,0.00,,,0.00,VWS V12.07,2013-05-05 19:30:00,
2013-05-05 14:45:00,63.7,44.2,29.97,NNW,343,5.0,9.0,49,0.00,,,0.00,VWS V12.07,2013-05-05 19:45:00,
2013-05-05 15:00:00,64.2,44.1,29.97,NNW,340,3.0,9.0,48,0.00,,,0.00,VWS V12.07,2013-05-05 20:00:00,
2013-05-05 15:30:00,65.2,45.0,29.95,North,350,3.0,9.0,48,0.00,,,0.00,VWS V12.07,2013-05-05 20:30:00,
2013-05-05 15:45:00,66.3,46.0,29.95,NNW,338,6.0,6.0,48,0.00,,,0.00,VWS V12.07,2013-05-05 20:45:00,
2013-05-05 16:00:00,66.1,45.3,29.94,North,355,2.0,8.0,47,0.00,,,0.00,VWS V12.07,2013-05-05 21:00:00,
2013-05-05 16:30:00,67.1,45.7,29.94,North,354,5.0,9.0,46,0.00,,,0.00,VWS V12.07,2013-05-05 21:30:00,
2013-05-05 16:45:00,67.8,46.3,29.93,NNW,335,6.0,7.0,46,0.00,,,0.00,VWS V12.07,2013-05-05 21:45:00,
2013-05-05 17:00:00,67.1,45.7,29.93,NW,323,4.0,7.0,46,0.00,,,0.00,VWS V12.07,2013-05-05 22:00:00,
2013-05-05 17:30:00,67.8,46.3,29.92,NNW,337,0.0,9.0,46,0.00,,,0.00,VWS V12.07,2013-05-05 22:30:00,
2013-05-05 17:45:00,67.4,45.9,29.92,NNW,348,2.0,8.0,46,0.00,,,0.00,VWS V12.07,2013-05-05 22:45:00,
2013-05-05 18:00:00,67.3,46.4,29.92,North,354,3.0,9.0,47,0.00,,,0.00,VWS V12.07,2013-05-05 23:00:00,
2013-05-05 18:30:00,67.1,45.1,29.92,NNW,347,3.0,10.0,45,0.00,,,0.00,VWS V12.07,2013-05-05 23:30:00,
2013-05-05 18:45:00,67.1,45.1,29.92,North,0,3.0,9.0,45,0.00,,,0.00,VWS V12.07,2013-05-05 23:45:00,
2013-05-05 19:00:00,66.3,44.9,29.92,North,356,5.0,10.0,46,0.00,,,0.00,VWS V12.07,2013-05-06 00:00:00,
2013-05-05 19:30:00,65.5,45.8,29.92,North,358,4.0,10.0,49,0.00,,,0.00,VWS V12.07,2013-05-06 00:30:00,
2013-05-05 19:45:00,64.8,45.7,29.93,North,357,2.0,6.0,50,0.00,,,0.00,VWS V12.07,2013-05-06 00:45:00,
2013-05-05 20:00:00,64.0,45.5,29.93,North,354,0.0,6.0,51,0.00,,,0.00,VWS V12.07,2013-05-06 01:00:00,
2013-05-05 20:30:00,63.5,45.6,29.95,North,354,0.0,0.0,52,0.00,,,0.00,VWS V12.07,2013-05-06 01:30:00,
2013-05-05 20:45:00,63.5,45.6,29.95,North,354,0.0,0.0,52,0.00,,,0.00,VWS V12.07,2013-05-06 01:45:00,
2013-05-05 21:00:00,63.5,45.6,29.95,North,354,0.0,0.0,52,0.00,,,0.00,VWS V12.07,2013-05-06 02:00:00,
2013-05-05 21:30:00,63.5,45.6,29.96,North,354,0.0,0.0,52,0.00,,,0.00,VWS V12.07,2013-05-06 02:30:00,
2013-05-05 21:45:00,63.5,45.6,29.96,North,354,0.0,0.0,52,0.00,,,0.00,VWS V12.07,2013-05-06 02:45:00,
2013-05-05 22:00:00,63.5,45.6,29.96,North,354,0.0,0.0,52,0.00,,,0.00,VWS V12.07,2013-05-06 03:00:00,
2013-05-05 22:30:00,63.5,45.6,29.97,North,354,0.0,0.0,52,0.00,,,0.00,VWS V12.07,2013-05-06 03:30:00,
2013-05-05 22:45:00,63.5,45.6,29.96,North,354,0.0,0.0,52,0.00,,,0.00,VWS V12.07,2013-05-06 03:45:00,
2013-05-05 23:00:00,63.5,45.6,29.97,North,354,0.0,0.0,52,0.00,,,0.00,VWS V12.07,2013-05-06 04:00:00,
2013-05-05 23:15:00,63.5,45.6,29.97,North,354,0.0,0.0,52,0.00,,,0.00,VWS V12.07,2013-05-06 04:15:00,
2013-05-05 23:30:00,63.5,45.6,29.97,North,354,0.0,0.0,52,0.00,,,0.00,VWS V12.07,2013-05-06 04:30:00,
2013-05-05 23:45:00,63.5,45.6,29.97,North,354,0.0,0.0,52,0.00,,,0.00,VWS V12.07,2013-05-06 04:45:00,